Other Public Products
Issued by NWS Grand Forks, ND

Home | Current Version | Previous Version | Text Only | Print | Product List | Glossary Off
Versions: 1 2 3 4 5 6 7 8 9 10 11 12 13 14 15 16 17 18 19 20 21 22 23 24 25 26 27 28 29 30 31 32 33 34 35 36 37 38 39 40 41 42 43 44 45 46 47 48 49 50

000
FPUS83 KFGF 230831
OPUFGF
PRAIRIE TO PINES WEATHER ROUNDUP
NATIONAL WEATHER SERVICE EASTERN NORTH DAKOTA/GRAND FORKS ND
300 AM CDT TUE MAY 23 2017

 **SATELLITE DATA USED TO AUGMENT SKY COVER AT AUTOMATED STATIONS**
 *****  WEATHER ACROSS EASTERN NORTH DAKOTA  *****

CITY           SKY/WX    TMP DP  RH WIND       PRES   REMARKS
GRAND FORKS    CLOUDY    49  46  90 N14       29.94S
GRAND FORKS AF LGT RAIN  46  46 100 N15       29.95S
GRAND CITY NWS NOT AVBL
BUXTON           N/A     47  46  99 N8          N/A
DEVILS LAKE    CLOUDY    46  41  82 N15       30.01F
FARGO          LGT RAIN  48  47  96 N15       29.90S
WAHPETON ARPT  CLOUDY    46  43  87 N9        29.88F
$$

 *****  WEATHER ACROSS CENTRAL AND WESTERN NORTH DAKOTA  *****

CITY           SKY/WX    TMP DP  RH WIND       PRES   REMARKS
JAMESTOWN      CLOUDY    46  43  89 N17       29.96S
BISMARCK       CLOUDY    51  39  63 NW8       30.05F
MINOT          FAIR      47  37  68 W12       30.10S
MINOT AFB      FAIR      40  36  86 NW10      30.10R
GARRISON         N/A     41  35  79 NW12      30.09S
WILLISTON      FAIR      40  35  83 NW5       30.16S
DICKINSON      FAIR      43  34  70 N6        30.12S
HETTINGER      CLOUDY    45  34  65 N8        30.13R
$$

 *****  OTHER OBSERVATIONS NORTHEAST NORTH DAKOTA  *****

CITY           SKY/WX    TMP DP  RH WIND       PRES   REMARKS
WALHALLA       NOT AVBL
LANGDON        CLOUDY    45  45 100 N16       30.01S
CAVALIER       CLOUDY    46  45  93 N14G20    29.99S
GRAFTON        FAIR      46  46 100 N15       29.98S
CANDO          NOT AVBL
FORT TOTTEN      N/A     47  43  85 N7        29.95S
ROLLA          CLOUDY    48  39  71 N20       30.05F
RUGBY          NOT AVBL
 ***** THE ABOVE OBSERVATIONS ARE NON NWS ARE NOT QUALITY
        CONTROLLED AND MAY MIS-REPORT RAIN FOR SNOW...
$$

 *****  OTHER OBSERVATIONS SOUTHEAST NORTH DAKOTA *****

CITY           SKY/WX    TMP DP  RH WIND       PRES   REMARKS
COOPERSTOWN    CLOUDY    46  45  93 N17       29.96S
VALLEY CITY    NOT AVBL
OAKES          NOT AVBL
GWINNER        CLOUDY    48  45  87 MISG      29.92S
SHEYENNE NWR     N/A     48  46  91 N8        29.95S
BUFFALO          N/A     46  45  95 W10         N/A
WYNDMERE         N/A     48  46  93 N12         N/A
 ***** THE ABOVE OBSERVATIONS ARE NON NWS ARE NOT QUALITY
       CONTROLLED AND MAY MIS-REPORT RAIN FOR SNOW...
$$

  *****  WEATHER ACROSS NORTHERN MINNESOTA  *****

CITY           SKY/WX    TMP DP  RH WIND       PRES   REMARKS
FLAG ISLAND    CLOUDY    46  43  87 NE21      29.93R
WARROAD        CLOUDY    46  43  87 N14G21    29.93S
ROSEAU         CLOUDY    46  43  87 N14       29.93R
HALLOCK        CLOUDY    48  45  87 N10       29.96S
THF RVR FALLS  CLOUDY    46  44  93 N14       29.91S
HALSTAD          N/A     47  45  93 N14         N/A
FOSSTON        DRIZZLE   45  43  93 N10       29.88F
BAUDETTE       CLOUDY    46  45  96 N12       29.89R
WASKISH        CLOUDY    46  46 100 N7        29.86S FOG
CROOKSTON      CLOUDY    46  46 100 N13       29.92F
$$
  *****  WEATHER ACROSS CENTRAL AND WEST MINNESOTA  *****

CITY           SKY/WX    TMP DP  RH WIND       PRES   REMARKS
BEMIDJI        LGT RAIN  45  45  99 N5        29.85S
PARK RAPIDS    CLOUDY    46  43  89 NW6       29.83F FOG
WADENA         CLOUDY    45  43  93 NW5       29.84S
DETROIT LAKES  CLOUDY    45  45 100 N10       29.88S
MOORHEAD       LGT RAIN  46  45  93 N14       29.90F
FERGUS FALLS   CLOUDY    46  46 100 N8        29.87S
ELBOW LAKE     DRIZZLE   46  46  99 NW8       29.86F
MORRIS MN      CLOUDY    48  46  93 NW9       29.86S FOG
STAPLES        CLOUDY    45  43  93 CALM      29.84S
WHEATON        DRIZZLE   46  45  93 NW8       29.90S
$$
  *****  WEATHER ELSEWHERE ACROSS MINNESOTA  *****

CITY           SKY/WX    TMP DP  RH WIND       PRES   REMARKS
DULUTH         CLOUDY    47  44  90 N6        29.80F
INTRNTL FALLS  LGT RAIN  48  46  93 N7        29.85S FOG
ELY            FAIR      34  34 100 CALM      29.83S
CLOQUET        CLOUDY    45  43  93 NW3       29.81S
BRAINERD       CLOUDY    45  44  97 NW6       29.83S
HIBBING        FOG       38  38 100 N5        29.82S VSB 1/4
ALEXANDRIA     LGT RAIN  46  45  96 NW6       29.85F
SAINT CLOUD    CLOUDY    47  45  93 N6        29.82F
MINNEAPOLIS    CLOUDY    53  47  79 SW3       29.81F
$$

  *****  WEATHER ACROSS SOUTH DAKOTA  *****

CITY           SKY/WX    TMP DP  RH WIND       PRES   REMARKS
SIOUX FALLS    MOCLDY    48  44  86 NW9       29.90F
BROOKINGS      CLOUDY    46  45  93 NW14      29.88F
WATERTOWN      CLOUDY    46  44  93 NW13      29.88F
HURON          LGT RAIN  47  45  93 NW10      29.94F
SISSETON         N/A     48  46  93 N13       29.88F
ABERDEEN       CLOUDY    47  42  83 N16       29.94F
MITCHELL       CLOUDY    48  45  89 W7        29.94F
PIERRE         CLOUDY    53  39  59 NW17      29.97F
MOBRIDGE       MOCLDY    49  40  71 NW12      30.00F
RAPID CITY     CLOUDY    47  40  76 NW8       30.11F
$$

  *****  SOME WEATHER IN NEARBY STATES *****

CITY           SKY/WX    TMP DP  RH WIND       PRES   REMARKS
GLASGOW MT     FAIR      45  32  60 N5        30.17F
GREAT FALLS MT FAIR      46  40  79 SW5       30.18F
CHEYENNE WY    MOCLDY    37  33  85 NW10      30.24F
SCOTTSBLUFF NE FAIR      38  35  89 NW3       30.18F
OMAHA NE       MOCLDY    51  45  79 NW9       29.90F
DES MOINES IA  FAIR      54  50  86 NW10      29.82F
DAVENPORT IA   FAIR      56  50  80 S10       29.82F
CHICAGO IL     CLOUDY    60  53  77 SW10      29.83F
EAU CLAIRE WI  CLOUDY    51  48  89 N5        29.78F
LA CROSSE WI   CLOUDY    54  53  97 CALM      29.76F FOG
$$

  *****  SOME NATIONAL WEATHER *****

CITY           SKY/WX    TMP DP  RH WIND       PRES   REMARKS
LA GUARDIA NY  CLOUDY    60  56  86 N6        29.92S
RALEIGH NC     CLOUDY    67  67 100 CALM      29.90F
ATLANTA GA     CLOUDY    68  67  96 CALM      29.87F FOG
NEW ORLEANS LA MOCLDY    74  72  93 S10       29.79F
OKLAHOMA CITY  MOCLDY    58  57  97 CALM      29.91F
ALBUQUERQUE NM FAIR      60  26  27 CALM      30.09S
SALT LAKE CITY FAIR      60  42  51 S6        30.16F
LOS ANGELES CA MOCLDY    59  56  89 W7        29.97S
BOISE ID       FAIR      58  41  53 SE5       30.10S
SEATTLE WA     FAIR      68  48  48 NE10      30.03F
$$

*** WEATHER ACROSS MANITOBA...SASKATCHEWAN AND ONTARIO ***
                ***ONTARIO***

CITY           SKY/WX    TMP DP  RH WIND       PRES   REMARKS
GERALDTON      DRZL/FOG  45  45 100 N7        29.83S VSB 3/4
THUNDER BAY    CLOUDY    46  45  93 W3        29.82S
SIOUX LOOKOUT  CLOUDY    45  41  87 NE5       29.92S
TORONTO        PTCLDY    50  46  87 W5        29.91F
BIG TROUT LK   CLEAR     34  32  93 NE6       30.10R
PICKLE LAKE    NOT AVBL
DRYDEN         CLOUDY    45  43  93 NE12G20   29.92R
KENORA         CLOUDY    45  41  87 NE10G17   29.95S
$$
                *** MANITOBA***

CITY           SKY/WX    TMP DP  RH WIND       PRES   REMARKS
BRANDON        PTCLDY    41  36  81 NE9       30.11R
DAUPHIN        CLEAR     39  32  75 W5        30.12S
ISLAND LAKE    CLEAR     45  34  65 NE3       30.12S
PILOT MOUND      N/A     46  37  71 NE12G18     N/A
THE PAS        CLEAR     45  39  81 SE8       30.13S
THOMPSON       PTCLDY    39  34  81 E3        30.15F
WINNIPEG       CLOUDY    48  41  76 NE14      30.04R
LYNN LAKE      CLEAR     48  34  57 S8        30.07F
CHURCHILL      FOG       28  28 100 S10       30.19F VSB 1/2 WCI  19
GILLAM         PTCLDY    30  28  93 VRB2      30.18S
$$
                ***SASKATCHEWAN***

CITY           SKY/WX    TMP DP  RH WIND       PRES   REMARKS
ESTEVAN        PTCLDY    41  36  81 W2        30.15S
KINDERSLEY     PTCLDY    52  32  46 S10       30.11F
LLOYDMINSTER   CLOUDY    57  39  51 S12G17    30.03F
PRINCE ALBERT  PTCLDY    41  34  75 E2        30.10S
REGINA         CLEAR     45  30  57 SE7       30.15S
YORKTON        CLEAR     43  32  65 W7        30.15R



USA.gov is the U.S. government's official web portal to all federal, state and local government web resources and services.